Weather History for KFLY - March, 2013

Change the Weather History Date:

Friday, March 15, 2013

  Actual Average (KCOS) Record (KCOS)
Temperature  
Mean Temperature 52 °F 39 °F  
Max Temperature 70 °F 52 °F 74 °F (2015)
Min Temperature 34 °F 26 °F 2 °F (1956)
Degree Days  
Heating Degree Days 13 26  
Month to date heating degree days 419  
Since 1 July heating degree days 4982  
Cooling Degree Days 0 0  
Month to date cooling degree days 0  
Year to date cooling degree days 0  
Growing Degree Days 2 (Base 50)    
Moisture  
Dew Point 17 °F    
Average Humidity 26    
Maximum Humidity 67    
Minimum Humidity 12    
Precipitation  
Precipitation 0.00 in 0.03 in 1.28 in (1928)
Month to date precipitation 0.43  
Year to date precipitation 1.09  
Snow  
Snow 0.00 in 0.30 in 18.00 in (1928)
Month to date snowfall 3.7  
Since 1 July snowfall 27.7  
Snow Depth -    
Sea Level Pressure  
Sea Level Pressure 30.08 in    
Wind  
Wind Speed 10 mph (WNW)    
Max Wind Speed 21 mph    
Max Gust Speed 25 mph    
Visibility 10 miles    
Events      
T = Trace of Precipitation, MM = Missing Value Source: NWS Daily Summary

Daily Weather History Graph

Daily Weather History Graph

Search for Another Location

Airport or City:

Trip Planner

Search our weather history database for the weather conditions in past years. The results will help you decide how hot, cold, wet, or windy it might be!

Date:

Astronomy

Mar. 15, 2013 Rise Set
Actual Time 7:09 AM MDT 7:05 PM MDT
Civil Twilight 6:42 AM MDT 7:32 PM MDT
Nautical Twilight 6:11 AM MDT 8:03 PM MDT
Astronomical Twilight 5:40 AM MDT 8:34 PM MDT
Moon 9:03 AM MDT (3/15) 11:19 PM MDT (3/15)
Length of Visible Light 12h 49m
Length of Day
11h 56m
Waxing Crescent, 16% of the Moon is Illuminated
Mar 15
Waxing Crescent
Mar 19
First Quarter
Mar 27
Full
Apr 2
Last Quarter
Apr 10
New

Hourly Weather History & Observations

Time (MDT) Temp. Windchill Dew Point Humidity Pressure Visibility Wind Dir Wind Speed Gust Speed Precip Events Conditions
12:12 AM 37.2 °F 31.2 °F 25.0 °F 61% 30.24 in 10.0 mi West 8.1 mph - N/A   Clear
12:32 AM 35.6 °F 28.6 °F 24.8 °F 65% 30.24 in 10.0 mi WNW 9.2 mph - N/A   Clear
12:52 AM 34.3 °F 27.0 °F 24.4 °F 67% 30.23 in 10.0 mi West 9.2 mph - N/A   Clear
1:12 AM 36.0 °F 29.0 °F 24.1 °F 62% 30.21 in 10.0 mi WNW 9.2 mph - N/A   Clear
1:32 AM 36.3 °F 30.1 °F 24.6 °F 63% 30.20 in 10.0 mi WNW 8.1 mph - N/A   Clear
1:52 AM 41.4 °F 33.6 °F 17.6 °F 38% 30.20 in 10.0 mi WNW 15.0 mph 18.4 mph N/A   Clear
2:12 AM 46.6 °F - 15.4 °F 29% 30.20 in 10.0 mi WNW 13.8 mph 19.6 mph N/A   Clear
2:32 AM 45.7 °F 39.5 °F 15.6 °F 30% 30.18 in 10.0 mi WNW 13.8 mph 17.3 mph N/A   Clear
2:52 AM 43.3 °F 37.7 °F 15.3 °F 32% 30.18 in 10.0 mi WNW 10.4 mph - N/A   Clear
3:12 AM 47.8 °F - 15.3 °F 27% 30.16 in 10.0 mi WNW 15.0 mph - N/A   Clear
3:32 AM 47.3 °F - 15.4 °F 28% 30.16 in 10.0 mi WNW 13.8 mph 19.6 mph N/A   Clear
3:52 AM 46.4 °F 43.5 °F 15.6 °F 29% 30.15 in 10.0 mi NW 5.8 mph - N/A   Clear
4:12 AM 45.9 °F 42.3 °F 15.6 °F 30% 30.15 in 10.0 mi NW 6.9 mph - N/A   Clear
4:32 AM 44.1 °F 40.1 °F 17.1 °F 34% 30.14 in 10.0 mi WNW 6.9 mph - N/A   Clear
4:52 AM 43.9 °F 40.5 °F 17.2 °F 34% 30.14 in 10.0 mi NW 5.8 mph - N/A   Clear
5:12 AM 43.9 °F 38.3 °F 18.3 °F 36% 30.14 in 10.0 mi WNW 10.4 mph - N/A   Clear
5:32 AM 44.2 °F 39.2 °F 19.0 °F 37% 30.14 in 10.0 mi West 9.2 mph - N/A   Clear
5:52 AM 46.6 °F - 18.3 °F 32% 30.13 in 10.0 mi WNW 11.5 mph - N/A   Clear
6:12 AM 48.6 °F - 17.2 °F 29% 30.13 in 10.0 mi West 12.7 mph - N/A   Clear
6:32 AM 50.0 °F - 16.9 °F 27% 30.13 in 10.0 mi WNW 13.8 mph 18.4 mph N/A   Clear
6:52 AM 50.5 °F - 16.9 °F 26% 30.13 in 10.0 mi WNW 16.1 mph - N/A   Clear
7:12 AM 51.8 °F - 16.5 °F 25% 30.13 in 10.0 mi West 11.5 mph 17.3 mph N/A   Clear
7:32 AM 51.4 °F - 16.5 °F 25% 30.12 in 10.0 mi WNW 20.7 mph 25.3 mph N/A   Clear
7:52 AM 52.0 °F - 16.3 °F 24% 30.12 in 10.0 mi NNW 6.9 mph - N/A   Clear
8:12 AM 53.4 °F - 14.9 °F 22% 30.12 in 10.0 mi NNW 12.7 mph 18.4 mph N/A   Clear
8:32 AM 56.3 °F - 14.9 °F 20% 30.12 in 10.0 mi NNW 11.5 mph 19.6 mph N/A   Clear
8:52 AM 59.2 °F - 12.4 °F 16% 30.12 in 10.0 mi NW 12.7 mph 23.0 mph N/A   Clear
9:12 AM 57.7 °F - 14.0 °F 18% 30.12 in 10.0 mi NW 9.2 mph 21.9 mph N/A   Clear
9:32 AM 59.0 °F - 15.3 °F 18% 30.12 in 10.0 mi WNW 11.5 mph 24.2 mph N/A   Clear
9:52 AM 58.5 °F - 14.9 °F 18% 30.12 in 10.0 mi West 16.1 mph 21.9 mph N/A   Clear
10:12 AM 58.1 °F - 16.0 °F 19% 30.12 in 10.0 mi West 13.8 mph 20.7 mph N/A   Clear
10:32 AM 58.1 °F - 16.7 °F 20% 30.12 in 10.0 mi West 4.6 mph 17.3 mph N/A   Clear
10:52 AM 57.9 °F - 15.8 °F 19% 30.12 in 10.0 mi SW 5.8 mph - N/A   Clear
11:12 AM 58.6 °F - 16.0 °F 19% 30.12 in 10.0 mi SSW 3.5 mph - N/A   Clear
11:32 AM 60.1 °F - 14.5 °F 17% 30.10 in 10.0 mi SW 11.5 mph - N/A   Clear
11:52 AM 59.7 °F - 15.3 °F 18% 30.10 in 10.0 mi West 11.5 mph - N/A   Clear
12:12 PM 56.8 °F - 17.4 °F 21% 30.09 in 10.0 mi SW 4.6 mph - N/A   Clear
12:32 PM 64.4 °F - 14.2 °F 14% 30.08 in 10.0 mi SSE 4.6 mph - N/A   Clear
12:52 PM 67.5 °F - 14.5 °F 13% 30.06 in 10.0 mi SE 4.6 mph - N/A   Clear
1:12 PM 68.2 °F - 14.7 °F 13% 30.06 in 10.0 mi SSW 15.0 mph 21.9 mph N/A   Clear
1:32 PM 69.3 °F - 14.7 °F 12% 30.04 in 10.0 mi SSW 12.7 mph 20.7 mph N/A   Clear
1:52 PM 67.3 °F - 12.9 °F 12% 30.03 in 10.0 mi South 15.0 mph 25.3 mph N/A   Clear
2:12 PM 65.5 °F - 14.0 °F 14% 30.02 in 10.0 mi SSE 13.8 mph 23.0 mph N/A   Scattered Clouds
2:32 PM 69.1 °F - 15.1 °F 13% 30.01 in 10.0 mi SSE 13.8 mph 19.6 mph N/A   Scattered Clouds
2:52 PM 70.0 °F - 16.0 °F 13% 30.00 in 10.0 mi SE 12.7 mph 20.7 mph N/A   Clear
3:12 PM 68.5 °F - 15.4 °F 13% 29.99 in 10.0 mi SE 13.8 mph 20.7 mph N/A   Scattered Clouds
3:32 PM 67.1 °F - 14.5 °F 13% 30.00 in 10.0 mi SE 11.5 mph - N/A   Clear
3:52 PM 66.9 °F - 14.7 °F 13% 29.99 in 10.0 mi SSE 10.4 mph - N/A   Scattered Clouds
4:12 PM 66.7 °F - 14.5 °F 13% 29.99 in 10.0 mi East 5.8 mph - N/A   Clear
4:32 PM 67.8 °F - 15.3 °F 13% 29.98 in 10.0 mi ESE 9.2 mph - N/A   Scattered Clouds
4:52 PM 67.8 °F - 14.4 °F 13% 29.98 in 10.0 mi ESE 5.8 mph - N/A   Clear
5:12 PM 66.9 °F - 13.8 °F 13% 29.98 in 10.0 mi Calm Calm - N/A   Clear
5:32 PM 66.7 °F - 14.0 °F 13% 29.98 in 10.0 mi North 5.8 mph - N/A   Clear
5:52 PM 67.1 °F - 13.5 °F 13% 29.97 in 10.0 mi North 5.8 mph - N/A   Clear
6:12 PM 65.3 °F - 12.9 °F 13% 29.97 in 10.0 mi North 5.8 mph - N/A   Clear
6:32 PM 61.7 °F - 14.0 °F 16% 29.98 in 10.0 mi WNW 6.9 mph - N/A   Clear
6:52 PM 58.1 °F - 16.7 °F 20% 29.98 in 10.0 mi NW 8.1 mph - N/A   Clear
7:12 PM 56.3 °F - 16.9 °F 21% 29.98 in 10.0 mi NW 8.1 mph - N/A   Clear
7:32 PM 55.2 °F - 16.5 °F 22% 29.98 in 10.0 mi NW 8.1 mph - N/A   Clear
7:52 PM 54.5 °F - 17.6 °F 23% 29.99 in 10.0 mi NW 8.1 mph - N/A   Clear
8:12 PM 54.7 °F - 18.0 °F 24% 29.99 in 10.0 mi North 15.0 mph 20.7 mph N/A   Clear
8:32 PM 54.0 °F - 19.2 °F 26% 30.00 in 10.0 mi NNW 11.5 mph 17.3 mph N/A   Clear
8:52 PM 53.8 °F - 20.7 °F 27% 30.00 in 10.0 mi NNW 9.2 mph - N/A   Clear
9:12 PM 53.1 °F - 22.1 °F 30% 30.01 in 10.0 mi North 10.4 mph 18.4 mph N/A   Clear
9:32 PM 51.1 °F - 23.4 °F 34% 30.01 in 10.0 mi North 10.4 mph 18.4 mph N/A   Clear
9:52 PM 50.9 °F - 23.5 °F 34% 30.02 in 10.0 mi NNW 8.1 mph - N/A   Clear
10:12 PM 50.2 °F - 21.2 °F 32% 30.01 in 10.0 mi NNW 9.2 mph - N/A   Clear
10:32 PM 49.6 °F - 20.3 °F 31% 30.02 in 10.0 mi NNW 8.1 mph - N/A   Clear
10:52 PM 46.9 °F - 20.7 °F 35% 30.02 in 10.0 mi NNW 5.8 mph - N/A   Clear
11:12 PM 46.9 °F - 20.1 °F 35% 30.01 in 10.0 mi NNW 8.1 mph - N/A   Clear
11:32 PM 48.9 °F - 18.9 °F 30% 30.01 in 10.0 mi NNW 8.1 mph - N/A   Clear
11:52 PM 49.8 °F - 18.5 °F 29% 30.00 in 10.0 mi NNW 9.2 mph - N/A   Clear